Overview Statistics Trail Chart Weather Telemetry Raw packets
 

This is the latest recevied weather packets stored in our database for station/object KD0TNH-13. If no packets are shown the sender has not sent any weather packets the latest 10 day(s).

<< 96 97 98 99 100 101 102 >>
Time Temp. Humidity Pressure Rain* Wind** Luminosity Snow
1787847911 20° C 81% 29.2 hPa 0 mm 1.79 m/s, 184° - -
1787847610 19.44° C 81% 29.2 hPa 0 mm 1.79 m/s, 184° - -
1787847310 19.44° C 81% 29.2 hPa 0 mm 1.34 m/s, 193° - -
1787847009 19.44° C 81% 29.2 hPa 0 mm 1.79 m/s, 187° - -
1787846709 19.44° C 82% 29.2 hPa 0 mm 2.24 m/s, 189° - -
1787846408 19.44° C 82% 29.2 hPa 0 mm 1.79 m/s, 189° - -
1787846108 18.89° C 83% 29.2 hPa 0 mm 1.79 m/s, 192° - -
1787845807 18.89° C 84% 29.2 hPa 0 mm 1.34 m/s, 179° - -
1787845507 18.89° C 85% 29.2 hPa 0 mm 1.79 m/s, 187° - -
1787845206 18.89° C 85% 29.2 hPa 0 mm 1.79 m/s, 190° - -
1787844911 18.89° C 86% 29.2 hPa 0 mm 0.89 m/s, 188° - -
1787844605 18.89° C 87% 29.2 hPa 0 mm 1.79 m/s, 187° - -
1787844304 18.89° C 86% 29.2 hPa 0 mm 1.34 m/s, 189° - -
1787844004 18.89° C 87% 29.2 hPa 0 mm 1.79 m/s, 184° - -
1787843704 18.89° C 88% 29.2 hPa 0 mm 1.79 m/s, 183° - -
1787843402 18.89° C 87% 29.2 hPa 0 mm 1.34 m/s, 186° - -
1787843102 18.89° C 88% 29.2 hPa 0 mm 0.89 m/s, 190° - -
1787842801 18.33° C 88% 29.2 hPa 0 mm 1.79 m/s, 183° - -
1787842504 18.33° C 88% 29.2 hPa 0 mm 1.79 m/s, 186° - -
1787842200 18.33° C 89% 29.2 hPa 0 mm 1.79 m/s, 184° - -
1787841899 18.33° C 88% 29.2 hPa 0 mm 1.79 m/s, 185° - -
1787841599 18.33° C 88% 29.2 hPa 0 mm 1.79 m/s, 185° - -
1787841298 18.33° C 89% 29.2 hPa 0 mm 2.24 m/s, 186° - -
1787840998 17.78° C 89% 29.2 hPa 0 mm 2.24 m/s, 188° - -
1787840697 17.78° C 90% 29.2 hPa 0 mm 1.79 m/s, 183° - -

* Rain latest hour (hover to see other rain measurements)
** Current wind speed in m/s (hover to see current wind gust speed)